Погода в Оклане

Россия / Камчатский край     62°42′45″N   166°34′45″E
темп.,
°C
ветер,
м/с
пор.,
м/с
влажн.,
%
обл.,
%
осадки,
мм/ч
давл.,
гПа
погр.,
м
6 марта, сб
сб600:00−26з7147599 0.0 995536
03:00−30зюз2281100 0.0 99527
06:00−30зюз2381100 0.0 99731
09:00−30юз2286100 0.0 99843
12:00−28юз238585 0.0 999132
15:00−27юз238986 0.0 998235
18:00−31зюз228979 0.0 99919
21:00−32з228473 0.0 99919
7 марта, вс
вс700:00−33юз228075 0.0 100120
03:00−34зюз11770 0.0 100219
06:00−35зюз11770 0.0 100219
09:00−35сз01780 0.0 100219
12:00−31с23820 0.0 1000123
15:00−31ссв348726 0.0 998200
18:00−32ссз338655 0.0 99527
21:00−28ссз51577100 0.0 993661
8 марта, пн
пн800:00−27с51398100 0.4 990779
03:00−27сз41197100 0.5 989529
06:00−28зсз4797100 0.8 988191
09:00−27зсз5695100 0.4 989275
12:00−25зсз3591100 0.6 989344
15:00−25з2388100 0.1 990483
18:00−26зсз2294100 0.1 99230
21:00−28з1294100 0.0 99420
9 марта, вт
вт900:00−28з1292100 0.1 99620
03:00−28зсз2289100 0.0 99723
06:00−30з2286100 0.0 100021
09:00−30з1184100 0.0 100219
12:00−27зюз128097 0.0 1005138
15:00−26юз128371 0.0 1006156
18:00−31юз128637 0.0 100819
21:00−31з117985 0.0 101219
10 марта, ср
ср1000:00−33з118077 0.0 101419
03:00−35зюз118115 0.0 101619
06:00−36з11807 0.0 101819
09:00−35зсз00782 0.0 101919
12:00−30всв00781 0.0 102192
15:00−29вюв11820 0.0 1021140
18:00−33св00890 0.0 102219
21:00−35с11880 0.0 102419